Tracking 19288 objects as of 20-Nov-2018
HD Live streaming from Space Station
objects crossing your sky now

COSMOS 1745

Track COSMOS 1745 now!
10-day predictions
COSMOS 1745 is classified as:


NORAD ID: 16727
Int'l Code: 1986-037A
Perigee: 968.8 km
Apogee: 1,014.6 km
Inclination: 83.0 °
Period: 104.8 minutes
Semi major axis: 7362 km
RCS: 2.3429 m2 (large)
Launch date: May 23, 1986
Source: Commonwealth of Independent States (former USSR) (CIS)
Launch site: PLESETSK MISSILE AND SPACE COMPLEX (PKMTR)
aabbcc
Your satellite tracking list
Your tracking list is empty




NASA's NSSDC Master Catalog

Two Line Element Set (TLE):
1 16727U 86037A   18324.19586340  .00000046  00000-0  33133-4 0  9998
2 16727  82.9574 347.4201 0031073 355.7963  72.9463 13.74189929629521
Source of the keplerian elements: AFSPC